Regional Weather Roundup
Issued by NWS

Home | Current Version | Previous Version | Text Only | Print | Product List | Glossary On
Versions: 1 2 3 4 5 6 7 8 9 10 11 12 13 14 15 16 17 18 19 20 21 22 23 24 25 26 27 28 29 30 31 32 33 34 35 36 37 38 39 40 41 42 43 44 45 46 47 48 49 50
000
ASUS43 KLSX 260910
RWRMO

WEATHER SUMMARY FOR MISSOURI
NATIONAL WEATHER SERVICE SPRINGFIELD MO
400 AM CDT THU MAY 26 2016

NOTE: "FAIR" INDICATES FEW OR NO CLOUDS BELOW 12,000 FEET WITH NO
       SIGNIFICANT WEATHER AND/OR OBSTRUCTIONS TO VISIBILITY.
       CURRENT SKY AND/OR WEATHER CONDITIONS ARE NOT AVAILABLE FOR
       CHILLICOTHE AND FARMINGTON.

MOZ001>031-035>038-043-044-053-054-261000-
...NORTHERN AND WESTERN MISSOURI...

CITY           SKY/WX    TMP DP  RH WIND       PRES   REMARKS
KANSAS CTY INT RAIN      66  60  81 W12G28    29.91R
KANSAS C DTWN  CLOUDY    73  56  54 S8        29.84R
LEE`S SUMMIT   CLOUDY    67  60  78 S15G28    29.85R
ST JOSEPH      CLOUDY    67  63  87 CALM      29.86R
CHILLICOTHE      N/A     75  58  55 S9        29.85R
KIRKSVILLE     CLOUDY    71  67  87 S6        29.88R

$$
MOZ066>068-077>081-088>096-101>105-261000-
...SOUTHWEST MISSOURI...

CITY           SKY/WX    TMP DP  RH WIND       PRES   REMARKS
SPRINGFIELD    CLOUDY    72  69  90 S10       29.92S
JOPLIN         CLOUDY    75  71  87 S13       29.90S

$$
MOZ032>034-039>042-045>050-055>058-069>072-261000-
...CENTRAL MISSOURI...

CITY           SKY/WX    TMP DP  RH WIND       PRES   REMARKS
COLUMBIA       PTCLDY    71  68  90 S12       29.90F
JEFFERSON CITY MOCLDY    73  69  87 S8        29.90F
ROLLA          CLOUDY    72  69  90 S10       29.93F
SEDALIA        TSTM      65  62  90 N14       29.98R FOG
WHITEMAN AFB   TSTM      63  63 100 SE3       29.95R
WARRENSBURG    TSTM      63  61  94 SE10      29.91F

$$
MOZ051-052-059>065-261000-
...EAST CENTRAL MISSOURI...

CITY           SKY/WX    TMP DP  RH WIND       PRES   REMARKS
ST LOUIS INTL  CLOUDY    73  67  81 S7        29.93F
SPIRIT OF STL  CLOUDY    71  69  93 S5        29.91F
ST CHARLES     PTCLDY    70  68  93 S3        29.91F

$$
MOZ072>076-082>087-097>100-106>115-261000-
...SOUTH CENTRAL AND SOUTHEAST MISSOURI...

CITY           SKY/WX    TMP DP  RH WIND       PRES   REMARKS
CAPE GIRARDEAU MOCLDY    67  63  87 CALM      30.01S
FARMINGTON     PTCLDY    67  66  97 S7        29.99F
POPLAR BLUFF   PTCLDY    66  64  93 CALM      29.98F
WEST PLAINS    CLOUDY    72  69  90 S8        29.99F

$$




USA.gov is the U.S. government's official web portal to all federal, state and local government web resources and services.